This is the latest recevied weather packets stored in our database for station/object KO6LQJ. If no packets are shown the sender has not sent any weather packets the latest 10 day(s).
| Time | Temp. | Humidity | Pressure | Rain* | Wind** | Luminosity | Snow |
|---|---|---|---|---|---|---|---|
| 1777942360 | 17.78° C | 55% | 1016.4 hPa | 0 mm | - | 78 W/m² | - |
| 1777942057 | 17.78° C | 55% | 1016.3 hPa | 0 mm | - | 75 W/m² | - |
| 1777941753 | 17.78° C | 55% | 1016.4 hPa | 0 mm | - | 50 W/m² | - |
| 1777941451 | 17.78° C | 55% | 1016.3 hPa | 0 mm | - | 62 W/m² | - |
| 1777941149 | 17.78° C | 56% | 1016.2 hPa | 0 mm | - | 79 W/m² | - |
| 1777940845 | 18.33° C | 54% | 1016.4 hPa | 0 mm | - | 100 W/m² | - |
| 1777940542 | 18.89° C | 53% | 1016.3 hPa | 0 mm | - | 101 W/m² | - |
| 1777940239 | 20° C | 51% | 1016 hPa | 0 mm | - | 128 W/m² | - |
| 1777939937 | 19.44° C | 52% | 1016.2 hPa | 0 mm | - | 186 W/m² | - |
| 1777939634 | 19.44° C | 53% | 1016.2 hPa | 0 mm | - | 150 W/m² | - |
| 1777939332 | 20° C | 52% | 1016.2 hPa | 0 mm | - | 151 W/m² | - |
| 1777939028 | 20° C | 51% | 1015.9 hPa | 0 mm | - | 154 W/m² | - |
| 1777938724 | 20° C | 52% | 1016.2 hPa | 0 mm | - | 184 W/m² | - |
| 1777938421 | 19.44° C | 52% | 1016 hPa | 0 mm | - | 197 W/m² | - |
| 1777938119 | 19.44° C | 53% | 1016.1 hPa | 0 mm | - | 162 W/m² | - |
| 1777937814 | 18.89° C | 54% | 1015.8 hPa | 0 mm | - | 164 W/m² | - |
| 1777937510 | 18.89° C | 54% | 1015.9 hPa | 0 mm | - | 170 W/m² | - |
| 1777937208 | 18.33° C | 54% | 1016 hPa | 0 mm | - | 175 W/m² | - |
| 1777936905 | 18.33° C | 55% | 1016.1 hPa | 0 mm | - | 133 W/m² | - |
| 1777936602 | 18.89° C | 54% | 1016 hPa | 0 mm | - | 174 W/m² | - |
| 1777936298 | 18.89° C | 55% | 1016.2 hPa | 0 mm | - | 177 W/m² | - |
| 1777935994 | 18.89° C | 53% | 1016.4 hPa | 0 mm | - | 199 W/m² | - |
| 1777935693 | 18.89° C | 54% | 1016.3 hPa | 0 mm | - | 217 W/m² | - |
| 1777935391 | 18.33° C | 54% | 1016.5 hPa | 0 mm | - | 177 W/m² | - |
| 1777935087 | 18.89° C | 54% | 1016.3 hPa | 0 mm | - | 167 W/m² | - |
* Rain latest hour (hover to see other rain measurements)
** Current wind speed in m/s (hover to see current wind gust speed)